Weather History for KMYL - July, 2013

Change the Weather History Date:

Monday, July 15, 2013

  Actual Average Record
Temperature  
Mean Temperature 67 °F 61 °F  
Max Temperature 89 °F 79 °F 93 °F (1935)
Min Temperature 45 °F 44 °F 34 °F (1986)
Degree Days  
Heating Degree Days 0 4  
Month to date heating degree days 11 91  
Since 1 June heating degree days 274 458  
Since 1 July heating degree days 11 91  
Cooling Degree Days 2 0  
Month to date cooling degree days 42 0  
Year to date cooling degree days 64 1  
Since 1 June cooling degree days 64 1  
Growing Degree Days 17 (Base 50)    
Moisture  
Dew Point 39 °F    
Average Humidity 44    
Maximum Humidity 76    
Minimum Humidity 11    
Precipitation  
Precipitation 0.00 in 0.01 in 0.52 in (1954)
Month to date precipitation T 0.44  
Year to date precipitation 11.25 12.08  
Sea Level Pressure  
Sea Level Pressure 29.90 in    
Wind  
Wind Speed 4 mph (WSW)    
Max Wind Speed 14 mph    
Max Gust Speed 22 mph    
Visibility 10 miles    
Events      
T = Trace of Precipitation, MM = Missing Value Source: NWS Daily Summary

Daily Weather History Graph

Daily Weather History Graph

Search for Another Location

Airport or City:

Trip Planner

Search our weather history database for the weather conditions in past years. The results will help you decide how hot, cold, wet, or windy it might be!

Date:

Astronomy

Jul. 15, 2013 Rise Set
Actual Time 6:12 AM MDT 9:27 PM MDT
Civil Twilight 5:36 AM MDT 10:03 PM MDT
Nautical Twilight 4:50 AM MDT 10:49 PM MDT
Astronomical Twilight 3:52 AM MDT 11:46 PM MDT
Moon 1:59 PM MDT (7/15) 12:22 AM MDT (7/15)
Length of Visible Light 16h 26m
Length of Day
15h 14m
Waxing Crescent, 46% of the Moon is Illuminated
Jul 15
Waxing Crescent
Jul 15
First Quarter
Jul 22
Full
Jul 29
Last Quarter
Aug 6
New

Hourly Weather History & Observations

Time (MDT) Temp. Dew Point Humidity Pressure Visibility Wind Dir Wind Speed Gust Speed Precip Events Conditions
12:51 AM 57.0 °F 41.0 °F 55% 29.95 in 10.0 mi Calm Calm - N/A   Clear
1:51 AM 54.0 °F 41.0 °F 62% 29.96 in 10.0 mi Calm Calm - N/A   Clear
2:51 AM 52.0 °F 39.9 °F 63% 29.96 in 10.0 mi Calm Calm - N/A   Clear
3:51 AM 50.0 °F 37.9 °F 63% 29.97 in 10.0 mi Calm Calm - N/A   Clear
4:51 AM 48.9 °F 37.9 °F 66% 29.96 in 10.0 mi Calm Calm - N/A   Clear
5:51 AM 48.0 °F 37.9 °F 68% 29.95 in 10.0 mi Calm Calm - N/A   Clear
6:51 AM 46.9 °F 39.0 °F 74% 29.97 in 10.0 mi Calm Calm - N/A   Clear
7:51 AM 51.1 °F 41.0 °F 68% 29.96 in 6.0 mi Calm Calm - N/A   Haze
8:51 AM 57.9 °F 43.0 °F 58% 29.94 in 10.0 mi Calm Calm - N/A   Clear
9:51 AM 64.9 °F 44.1 °F 47% 29.94 in 10.0 mi Calm Calm - N/A   Clear
10:51 AM 71.1 °F 44.1 °F 38% 29.92 in 10.0 mi SSE 4.6 mph - N/A   Clear
11:51 AM 77.0 °F 41.0 °F 28% 29.92 in 10.0 mi Variable 4.6 mph - N/A   Clear
12:51 PM 81.0 °F 37.0 °F 21% 29.89 in 10.0 mi WSW 5.8 mph - N/A   Clear
1:51 PM 84.0 °F 35.1 °F 17% 29.88 in 10.0 mi Calm Calm - N/A   Clear
2:51 PM 84.9 °F 36.0 °F 17% 29.87 in 10.0 mi SE 4.6 mph - N/A   Clear
3:51 PM 87.1 °F 33.1 °F 15% 29.86 in 10.0 mi SSW 8.1 mph - N/A   Partly Cloudy
4:51 PM 88.0 °F 26.1 °F 11% 29.84 in 10.0 mi SW 10.4 mph - N/A   Clear
5:51 PM 87.1 °F 28.9 °F 12% 29.84 in 10.0 mi South 6.9 mph 16.1 mph N/A   Clear
6:51 PM 86.0 °F 33.1 °F 15% 29.82 in 10.0 mi SW 5.8 mph - N/A   Clear
7:51 PM 84.0 °F 37.0 °F 19% 29.82 in 10.0 mi West 3.5 mph - N/A   Clear
8:51 PM 78.1 °F 42.1 °F 28% 29.84 in 10.0 mi West 8.1 mph - N/A   Clear
9:51 PM 73.9 °F 43.0 °F 33% 29.84 in 10.0 mi North 5.8 mph - N/A   Clear
10:51 PM 70.0 °F 43.0 °F 38% 29.86 in 10.0 mi North 5.8 mph - N/A   Clear
11:51 PM 66.9 °F 42.1 °F 40% 29.86 in 10.0 mi NNW 3.5 mph - N/A   Clear